sat.trackr.live / text

‹ back to catalog

KUIPER-00034

NORAD 63747 · 2025-088Z

PAYLOAD ACTIVE UNKNOWN

§ Identity

Operator
Country
US
Launch date
2025-04-28
Launch site
AFETR
Launch vehicle
Mass (kg)
RCS (m²)

External: N2YO · Heavens-Above · Gunter

§ Orbital elements

Epoch: 2026-05-25T03:30:19.829376Z

Period
97.30 min
Inclination
51.9015°
Eccentricity
0.0000663
Mean motion
14.79949280 rev/d
Perigee alt
629.0 km
Apogee alt
629.9 km
Semi-major
7,007.6 km
B*
1.8086e-4
RAAN
110.0169°
Arg perigee
68.3835°
Mean anomaly
291.7198°
Rev number
5,914

§ Raw data

KUIPER-000341 63747U 25088Z   26145.14606284  .00001158  00000+0  18086-3 0  99992 63747  51.9015 110.0169 0000663  68.3835 291.7198 14.79949280 59145

JSON: /api/v1/satellites/63747 · /tle

For live sub-satellite position, see the globe view (requires WebGL).

§ Visibility from observer

Set your observer location to see the next 7 days of passes ≥ 10°. The values pass through the URL so the page stays shareable.

No JS? Fill the form by hand. The geolocation button needs JavaScript.